Retour au catalogue

CZ-4 DEB

ActifPO
NORAD 26432·DEBRIS·🇨🇳 China

Lancé Oct 14, 1999 depuis Taiyuan Satellite Launch Center

Loading…

Prochains Passages (prochaines 24 heures)

TLE

FraisSource: Space-Track

Époque: Sep 14, 2026, 08:37 UTC

1 26432U 99057KD  26257.35951576  .00022165  00000-0  16629-2 0  9992
2 26432  98.5803  49.1732 0046835 228.3118 131.4092 15.01783209385179

Suivez CZ-4 DEB en temps réel avec AllMySat

Download on the App Store